TimeCST,TemperatureF,Dew PointF,Humidity,Sea Level PressureIn,VisibilityMPH,Wind Direction,Wind SpeedMPH,Gust SpeedMPH,PrecipitationIn,Events,Conditions,WindDirDegrees,DateUTC
12:15 AM,25.5,25.5,100,29.38,2.5,Calm,Calm,-,N/A,Snow,Light Snow,0,2014-01-11 06:15:00
12:35 AM,25.3,25.3,100,29.37,4.0,Calm,Calm,-,N/A,Snow,Light Snow,0,2014-01-11 06:35:00
12:55 AM,25.2,25.0,99,29.37,4.0,Calm,Calm,-,N/A,Snow,Light Snow,0,2014-01-11 06:55:00
1:15 AM,25.2,25.0,99,29.37,2.5,Calm,Calm,-,N/A,Snow,Light Snow,0,2014-01-11 07:15:00
1:35 AM,25.2,25.2,100,29.36,0.8,Calm,Calm,-,N/A,Snow,Snow,0,2014-01-11 07:35:00
1:55 AM,25.2,24.8,99,29.36,1.8,Calm,Calm,-,N/A,Snow,Light Snow,0,2014-01-11 07:55:00
2:15 AM,25.2,24.8,99,29.36,2.5,Calm,Calm,-,N/A,Snow,Light Snow,0,2014-01-11 08:15:00
2:35 AM,25.0,24.8,99,29.35,2.5,Calm,Calm,-,N/A,Snow,Light Snow,0,2014-01-11 08:35:00
2:55 AM,25.2,24.8,99,29.34,1.8,Calm,Calm,-,N/A,Snow,Light Snow,0,2014-01-11 08:55:00
3:15 AM,25.2,24.8,99,29.33,1.2,Calm,Calm,-,N/A,Snow,Light Snow,0,2014-01-11 09:15:00
3:35 AM,25.2,24.8,99,29.33,1.8,Calm,Calm,-,N/A,Snow,Light Snow,0,2014-01-11 09:35:00
3:55 AM,25.5,25.3,99,29.33,2.0,Calm,Calm,-,N/A,Snow,Light Snow,0,2014-01-11 09:55:00
4:15 AM,25.7,25.5,99,29.32,1.5,Calm,Calm,-,N/A,Snow,Light Snow,0,2014-01-11 10:15:00
4:35 AM,26.1,25.5,98,29.33,2.5,Calm,Calm,-,N/A,Snow,Light Snow,0,2014-01-11 10:35:00
4:55 AM,25.7,25.2,98,29.33,4.0,Calm,Calm,-,N/A,Snow,Light Snow,0,2014-01-11 10:55:00
5:15 AM,25.7,24.8,96,29.33,7.0,Calm,Calm,-,N/A,Snow,Light Snow,0,2014-01-11 11:15:00
5:35 AM,25.5,24.8,97,29.33,5.0,NW,6.9,-,N/A,Snow,Light Snow,310,2014-01-11 11:35:00
5:55 AM,25.5,24.8,97,29.33,10.0,Calm,Calm,-,N/A,,Overcast,0,2014-01-11 11:55:00
6:15 AM,25.5,24.8,97,29.33,7.0,Calm,Calm,-,N/A,,Overcast,0,2014-01-11 12:15:00
6:35 AM,25.5,24.8,97,29.33,7.0,Calm,Calm,-,N/A,,Overcast,0,2014-01-11 12:35:00
6:55 AM,25.5,24.8,97,29.33,7.0,WNW,6.9,-,N/A,,Overcast,300,2014-01-11 12:55:00
7:15 AM,25.3,24.8,98,29.33,7.0,Calm,Calm,-,N/A,,Overcast,0,2014-01-11 13:15:00
7:35 AM,25.3,24.8,98,29.34,5.0,Calm,Calm,-,N/A,,Overcast,0,2014-01-11 13:35:00
7:55 AM,25.2,24.8,99,29.35,5.0,WNW,6.9,-,N/A,,Overcast,290,2014-01-11 13:55:00
8:15 AM,25.2,24.8,99,29.35,5.0,Calm,Calm,-,N/A,,Overcast,0,2014-01-11 14:15:00
8:35 AM,25.2,24.8,99,29.36,4.0,WNW,10.4,-,N/A,,Overcast,290,2014-01-11 14:35:00
8:55 AM,24.8,24.8,100,29.36,4.0,NW,9.2,17.3,N/A,,Overcast,310,2014-01-11 14:55:00
9:15 AM,25.0,25.0,100,29.36,1.8,Calm,Calm,-,N/A,Snow,Light Snow,0,2014-01-11 15:15:00
9:35 AM,24.8,24.6,99,29.37,4.0,NW,10.4,-,N/A,,Overcast,310,2014-01-11 15:35:00
9:55 AM,24.8,24.4,99,29.37,5.0,WNW,10.4,17.3,N/A,,Overcast,290,2014-01-11 15:55:00
10:15 AM,25.2,24.8,99,29.37,3.0,NW,3.5,-,N/A,,Overcast,310,2014-01-11 16:15:00
10:35 AM,25.2,24.8,99,29.38,2.0,WNW,3.5,-,N/A,,Overcast,290,2014-01-11 16:35:00
10:55 AM,25.3,25.0,99,29.38,3.0,WNW,9.2,-,N/A,,Overcast,290,2014-01-11 16:55:00
11:15 AM,25.2,24.8,99,29.37,4.0,WNW,11.5,17.3,N/A,,Overcast,290,2014-01-11 17:15:00
11:35 AM,25.2,24.3,96,29.36,5.0,NW,11.5,16.1,N/A,,Overcast,310,2014-01-11 17:35:00
11:55 AM,25.5,24.6,96,29.36,7.0,Calm,Calm,-,N/A,,Overcast,0,2014-01-11 17:55:00
12:15 PM,25.7,24.8,96,29.36,7.0,WNW,8.1,-,N/A,,Overcast,300,2014-01-11 18:15:00
12:35 PM,26.1,25.2,96,29.36,7.0,NW,10.4,-,N/A,,Overcast,310,2014-01-11 18:35:00
12:55 PM,26.1,25.3,97,29.36,5.0,WNW,6.9,-,N/A,Snow,Light Snow,300,2014-01-11 18:55:00
1:15 PM,26.2,25.5,97,29.36,5.0,WNW,6.9,-,N/A,,Overcast,290,2014-01-11 19:15:00
1:35 PM,26.2,25.7,98,29.37,4.0,WNW,8.1,-,N/A,,Overcast,290,2014-01-11 19:35:00
1:55 PM,26.4,26.1,99,29.37,4.0,WNW,6.9,-,N/A,,Overcast,300,2014-01-11 19:55:00
2:15 PM,26.6,26.2,99,29.36,4.0,Calm,Calm,-,N/A,,Overcast,0,2014-01-11 20:15:00
2:35 PM,27.1,26.4,97,29.37,5.0,Calm,Calm,-,N/A,,Overcast,0,2014-01-11 20:35:00
2:55 PM,27.5,26.4,96,29.38,7.0,Calm,Calm,-,N/A,,Overcast,0,2014-01-11 20:55:00
3:15 PM,27.9,26.6,95,29.41,7.0,Calm,Calm,-,N/A,,Overcast,0,2014-01-11 21:15:00
3:35 PM,28.0,26.8,95,29.41,5.0,WNW,10.4,-,N/A,,Overcast,300,2014-01-11 21:35:00
3:55 PM,28.0,27.0,96,29.43,5.0,WNW,12.7,18.4,N/A,,Overcast,300,2014-01-11 21:55:00
4:15 PM,27.9,26.8,96,29.43,5.0,WNW,9.2,16.1,N/A,,Overcast,290,2014-01-11 22:15:00
4:35 PM,27.7,26.8,96,29.43,5.0,WNW,9.2,-,N/A,,Overcast,290,2014-01-11 22:35:00
4:55 PM,27.5,26.6,96,29.44,5.0,WNW,13.8,19.6,N/A,,Overcast,300,2014-01-11 22:55:00
5:15 PM,27.5,26.6,96,29.45,7.0,WNW,10.4,-,N/A,,Overcast,290,2014-01-11 23:15:00
5:35 PM,27.5,26.4,96,29.46,7.0,WNW,10.4,-,N/A,,Overcast,300,2014-01-11 23:35:00
5:55 PM,27.5,25.7,93,29.47,10.0,Calm,Calm,-,N/A,,Overcast,0,2014-01-11 23:55:00
6:15 PM,27.5,25.7,93,29.49,10.0,WNW,11.5,-,N/A,,Overcast,300,2014-01-12 00:15:00
6:35 PM,27.5,25.5,92,29.49,10.0,WNW,11.5,-,N/A,,Overcast,300,2014-01-12 00:35:00
6:55 PM,27.1,25.2,92,29.49,10.0,WNW,10.4,-,N/A,,Overcast,300,2014-01-12 00:55:00
7:15 PM,27.1,25.2,92,29.50,10.0,Calm,Calm,-,N/A,,Overcast,0,2014-01-12 01:15:00
7:35 PM,27.0,24.8,92,29.51,10.0,West,6.9,-,N/A,,Overcast,280,2014-01-12 01:35:00
7:55 PM,27.0,24.6,91,29.50,10.0,West,6.9,-,N/A,,Overcast,280,2014-01-12 01:55:00
8:15 PM,27.0,24.8,92,29.52,10.0,West,8.1,-,N/A,,Overcast,280,2014-01-12 02:15:00
8:35 PM,26.6,24.8,93,29.52,10.0,West,8.1,-,N/A,,Overcast,280,2014-01-12 02:35:00
8:55 PM,26.6,24.8,93,29.52,10.0,Calm,Calm,-,N/A,,Overcast,0,2014-01-12 02:55:00
9:15 PM,26.4,24.8,94,29.52,10.0,Calm,Calm,-,N/A,,Overcast,0,2014-01-12 03:15:00
9:35 PM,26.4,23.9,90,29.53,10.0,West,9.2,18.4,N/A,,Overcast,270,2014-01-12 03:35:00
9:55 PM,26.2,24.1,92,29.54,10.0,West,11.5,18.4,N/A,,Overcast,280,2014-01-12 03:55:00
10:15 PM,26.1,24.4,94,29.54,10.0,West,13.8,17.3,N/A,,Overcast,260,2014-01-12 04:15:00
10:35 PM,25.7,23.5,92,29.55,10.0,West,9.2,-,N/A,,Overcast,270,2014-01-12 04:35:00
10:55 PM,25.3,23.7,94,29.55,10.0,West,12.7,19.6,N/A,,Overcast,270,2014-01-12 04:55:00
11:15 PM,25.2,23.5,94,29.54,10.0,WSW,10.4,-,N/A,,Overcast,250,2014-01-12 05:15:00
11:35 PM,25.0,23.5,94,29.54,10.0,WSW,9.2,-,N/A,,Overcast,250,2014-01-12 05:35:00
11:55 PM,24.8,23.7,96,29.55,10.0,WSW,11.5,-,N/A,,Overcast,250,2014-01-12 05:55:00